Location: La Oliva
(42.2466°N, 2.9955°E)
Time: 10:36:52
(UTC+00:00)

Lacrosse 5 rocket - Pass Details

Date: 22 April 2021
Orbit: 460 x 634 km, 57.0° (Epoch: 11 May)

Event Time Altitude Azimuth Distance (km) Brightness Sun altitude
Rises 20:41:36 0° 316° (NW) 2,741 6.4 -20.8°
Reaches altitude 10° 20:44:55 10° 345° (NNW) 1,888 4.8 -21.2°
Maximum altitude 20:47:01 13° 14° (NNE) 1,708 4.1 -21.5°
Drops below altitude 10° 20:49:10 10° 43° (NE) 1,936 4.1 -21.8°
Enters shadow 20:50:01 - 52° (NE) 2,121 4.2 -21.9°
